FW1892 Weather Reports


Display with metric or nautical units.
time (UTC)temp
F
wind
direction
speed
MPH
gust
MPH
rain 1hr
in
rain 24hr
in
rain mn
in
humidity
%
barometer
mb
20260903174203 68 316 0.0 0.0 0.00 0.07 0.07 89 1011.6
20260903174128 69 67 1.0 2.0 0.00 0.09 0.09 84 1012.4
20260903173703 68 351 0.0 0.0 0.00 0.07 0.07 89 1011.7
20260903173623 68 189 1.0 1.0 0.00 0.09 0.09 84 1012.6
20260903173120 68 322 2.0 3.0 0.00 0.09 0.09 84 1012.5
20260903172702 68 15 0.0 7.0 0.00 0.07 0.07 90 1011.8
20260903172619 68 141 0.0 3.0 0.00 0.09 0.09 85 1012.3
20260903172203 67 298 0.0 2.0 0.00 0.07 0.07 90 1011.8
20260903172115 68 213 1.0 1.0 0.00 0.09 0.09 86 1012.5
20260903171703 67 336 2.0 6.0 0.00 0.07 0.07 90 1011.7
20260903171614 68 262 2.0 4.0 0.00 0.09 0.09 86 1012.4
20260903171203 67 324 0.0 0.0 0.00 0.07 0.07 91 1011.7
20260903171110 68 111 0.0 1.0 0.00 0.09 0.09 86 1012.4
20260903170703 67 287 2.0 6.0 0.00 0.07 0.07 91 1011.7
20260903170609 68 210 3.0 4.0 0.00 0.09 0.09 86 1012.5
20260903170202 67 217 0.0 0.0 0.00 0.07 0.07 91 1011.6
20260903170105 67 140 0.0 0.0 0.00 0.09 0.09 87 1012.5
20260903165702 66 294 0.0 0.0 0.00 0.07 0.07 91 1011.6
20260903165602 67 139 0.0 1.0 0.00 0.09 0.09 87 1012.5
20260903165203 66 92 0.0 2.0 0.00 0.07 0.07 91 1011.7
20260903165058 67 131 0.0 1.0 0.00 0.09 0.09 87 1012.5
20260903164702 66 23 0.0 3.0 0.00 0.07 0.07 92 1011.8
20260903164552 67 104 0.0 1.0 0.00 0.09 0.09 87 1012.5
20260903164202 66 334 0.0 7.0 0.00 0.07 0.07 92 1011.8
20260903164048 67 289 3.0 4.0 0.00 0.09 0.09 87 1012.5
20260903163702 66 340 1.0 5.0 0.00 0.07 0.07 92 1011.9
20260903163542 67 237 2.0 3.0 0.00 0.09 0.09 87 1012.5
20260903163202 66 5 0.0 0.0 0.00 0.07 0.07 92 1011.9
20260903163038 67 121 0.0 1.0 0.00 0.09 0.09 88 1012.5
20260903162535 67 283 1.0 2.0 0.00 0.09 0.09 88 1012.4
20260903162203 66 40 0.0 3.0 0.00 0.07 0.07 92 1011.9
20260903162030 67 133 0.0 2.0 0.00 0.09 0.09 88 1012.5
20260903161702 66 84 0.0 0.0 0.00 0.07 0.07 92 1011.8
20260903161525 66 136 0.0 3.0 0.00 0.09 0.09 89 1012.5
20260903161016 66 218 0.0 2.0 0.00 0.09 0.09 89 1012.5
20260903160703 65 329 0.0 0.0 0.00 0.07 0.07 93 1011.9
20260903160515 66 74 0.0 1.0 0.00 0.09 0.09 89 1012.5
20260903160202 65 307 0.0 3.0 0.00 0.07 0.07 93 1011.9
20260903160010 66 269 0.0 3.0 0.00 0.09 0.09 89 1012.6
20260903155702 65 51 2.0 5.0 0.00 0.07 0.07 93 1011.9
20260903155508 65 298 2.0 2.0 0.00 0.09 0.09 90 1012.6
20260903155202 65 327 1.0 5.0 0.00 0.07 0.07 93 1011.9
20260903155004 65 73 1.0 4.0 0.00 0.09 0.09 89 1012.5
20260903154702 65 342 0.0 0.0 0.00 0.07 0.07 93 1012.1
20260903154459 66 238 2.0 3.0 0.00 0.09 0.09 89 1012.8
20260903154202 65 346 0.0 0.0 0.00 0.07 0.07 93 1012.1
20260903153955 66 132 0.0 1.0 0.00 0.09 0.09 89 1012.7
20260903153702 65 27 0.0 0.0 0.00 0.07 0.07 93 1012.1
20260903153451 66 128 0.0 2.0 0.00 0.09 0.09 90 1012.8
20260903153203 65 111 0.0 0.0 0.00 0.07 0.07 93 1012.4
20260903152947 65 136 0.0 0.0 0.00 0.09 0.09 91 1013.1
20260903152702 64 85 0.0 0.0 0.00 0.07 0.07 93 1012.4
20260903152442 65 143 0.0 1.0 0.00 0.09 0.09 91 1013.0
20260903152203 64 45 0.0 0.0 0.00 0.07 0.07 93 1012.4
20260903151938 65 126 0.0 2.0 0.00 0.09 0.09 91 1013.2
20260903151703 64 44 0.0 0.0 0.00 0.07 0.07 93 1012.6
20260903151432 64 62 0.0 1.0 0.00 0.09 0.09 91 1013.5
20260903151203 64 319 0.0 0.0 0.00 0.07 0.07 93 1012.7
20260903150927 64 106 1.0 2.0 0.00 0.09 0.09 91 1013.2
20260903150702 64 319 0.0 0.0 0.00 0.07 0.07 93 1012.6
20260903150422 65 216 1.0 1.0 0.00 0.09 0.09 91 1013.4
20260903150202 64 332 0.0 0.0 0.00 0.07 0.07 93 1012.6
20260903145917 65 235 1.0 2.0 0.00 0.09 0.09 90 1013.2
20260903145703 64 332 0.0 0.0 0.00 0.07 0.07 93 1012.6
20260903145413 65 99 0.0 0.0 0.00 0.09 0.09 90 1013.1
20260903145202 64 332 0.0 0.0 0.00 0.07 0.07 93 1012.6
20260903144912 65 28 0.0 2.0 0.00 0.09 0.09 89 1013.2
20260903144702 64 332 0.0 0.0 0.00 0.07 0.07 93 1012.7
20260903144406 65 134 0.0 1.0 0.00 0.09 0.09 90 1013.3
20260903144202 64 330 0.0 0.0 0.00 0.07 0.07 94 1012.6
20260903143902 65 74 0.0 1.0 0.00 0.09 0.09 90 1013.1
20260903143359 65 132 0.0 1.0 0.00 0.09 0.09 90 1013.1
20260903143203 64 121 0.0 0.0 0.00 0.07 0.07 94 1012.5
20260903142859 65 74 0.0 0.0 0.00 0.09 0.09 90 1013.4
20260903142702 64 122 0.0 0.0 0.00 0.07 0.07 94 1012.6
20260903142355 64 133 0.0 0.0 0.00 0.09 0.09 90 1013.3
20260903142203 64 123 0.0 0.0 0.00 0.07 0.07 94 1012.8
20260903141851 64 147 0.0 0.0 0.00 0.09 0.09 90 1013.4
20260903141703 64 123 0.0 0.0 0.00 0.07 0.07 94 1012.9
20260903141346 65 134 0.0 0.0 0.00 0.09 0.09 90 1013.6
20260903140841 65 139 0.0 0.0 0.00 0.09 0.09 90 1013.6
20260903140702 64 123 0.0 0.0 0.00 0.07 0.07 94 1013.0
20260903140336 64 124 0.0 0.0 0.00 0.09 0.09 91 1013.7
20260903140202 64 121 0.0 0.0 0.00 0.07 0.07 94 1013.0
20260903135832 64 133 0.0 0.0 0.00 0.09 0.09 91 1013.8
20260903135702 63 122 0.0 0.0 0.00 0.07 0.07 94 1013.0
20260903135328 64 110 0.0 0.0 0.00 0.09 0.09 92 1013.8
20260903135203 63 122 0.0 0.0 0.00 0.07 0.07 94 1013.0
20260903134827 64 120 0.0 0.0 0.00 0.09 0.09 92 1013.6
20260903134703 63 122 0.0 0.0 0.00 0.07 0.07 94 1013.0
20260903134322 64 129 0.0 0.0 0.00 0.09 0.09 92 1013.6
20260903134203 63 122 0.0 0.0 0.00 0.07 0.07 94 1013.0
20260903133820 64 112 0.0 0.0 0.00 0.09 0.09 92 1013.4
20260903133702 63 122 0.0 0.0 0.00 0.07 0.07 94 1012.9
20260903133316 63 140 0.0 0.0 0.00 0.09 0.09 93 1013.4
20260903133202 63 122 0.0 0.0 0.00 0.07 0.07 94 1012.8
20260903132815 63 103 0.0 0.0 0.00 0.09 0.09 93 1013.5
20260903132703 63 122 0.0 0.0 0.00 0.07 0.07 94 1012.8
20260903132311 63 128 0.0 0.0 0.00 0.09 0.09 93 1013.4
20260903132202 63 122 0.0 0.0 0.00 0.07 0.07 94 1012.7
20260903131806 63 184 0.0 0.0 0.00 0.09 0.09 93 1013.4
20260903131702 63 123 0.0 0.0 0.00 0.07 0.07 94 1012.8
20260903131305 63 152 0.0 0.0 0.00 0.09 0.09 93 1013.6
20260903131202 63 123 0.0 0.0 0.00 0.07 0.07 94 1012.9
20260903130800 63 144 0.0 0.0 0.00 0.09 0.09 94 1013.5
20260903130702 63 123 0.0 0.0 0.00 0.07 0.07 94 1012.9
20260903130255 63 103 0.0 0.0 0.00 0.09 0.09 94 1013.5
20260903130203 63 123 0.0 0.0 0.00 0.07 0.07 94 1012.9
20260903125753 63 106 0.0 0.0 0.00 0.09 0.09 94 1013.4
20260903125703 63 123 0.0 0.0 0.00 0.07 0.07 94 1012.9
20260903125249 63 138 1.0 1.0 0.00 0.09 0.09 94 1013.7
20260903125203 62 123 0.0 0.0 0.00 0.07 0.07 94 1013.0
20260903124748 62 141 0.0 0.0 0.00 0.09 0.09 94 1013.7
20260903124703 62 84 0.0 0.0 0.00 0.07 0.07 94 1013.0
20260903124244 62 133 0.0 0.0 0.00 0.09 0.09 95 1013.8
20260903124203 62 84 0.0 0.0 0.00 0.07 0.07 93 1013.1
20260903123742 62 100 0.0 0.0 0.00 0.09 0.09 95 1013.8
20260903123242 62 107 0.0 0.0 0.00 0.09 0.09 95 1014.0
20260903123202 62 157 0.0 0.0 0.00 0.07 0.07 93 1013.2
20260903122740 62 126 1.0 1.0 0.00 0.09 0.09 95 1013.9
20260903122703 62 157 0.0 0.0 0.00 0.07 0.07 94 1013.3
20260903122235 62 131 0.0 1.0 0.00 0.09 0.09 95 1014.1
20260903121733 62 140 0.0 0.0 0.00 0.09 0.09 95 1014.3
20260903121702 62 168 0.0 0.0 0.00 0.07 0.07 93 1013.5
20260903121230 62 127 0.0 0.0 0.00 0.09 0.09 95 1014.2
20260903120730 62 174 0.0 2.0 0.00 0.09 0.09 95 1014.1
20260903120702 62 169 0.0 0.0 0.00 0.07 0.07 93 1013.4
20260903120224 62 126 0.0 0.0 0.00 0.09 0.09 96 1014.1
20260903120203 62 140 0.0 0.0 0.00 0.07 0.07 93 1013.5
20260903115723 62 119 1.0 2.0 0.00 0.09 0.09 95 1014.2
20260903115702 62 143 2.0 3.0 0.00 0.07 0.07 93 1013.5
20260903115219 62 144 1.0 1.0 0.00 0.09 0.09 95 1014.2
20260903115203 62 152 1.0 3.0 0.00 0.07 0.07 93 1013.7
20260903114718 61 125 0.0 0.0 0.00 0.09 0.09 95 1014.5
20260903114214 61 125 0.0 0.0 0.00 0.09 0.09 95 1014.4
20260903114202 62 158 0.0 0.0 0.00 0.07 0.07 93 1013.8
20260903113709 61 123 0.0 0.0 0.00 0.09 0.09 95 1014.4
20260903113702 62 160 0.0 0.0 0.00 0.07 0.07 93 1013.8
20260903113205 61 125 0.0 1.0 0.00 0.09 0.09 95 1014.3
20260903113203 62 161 0.0 0.0 0.00 0.07 0.07 93 1013.8
20260903112702 62 161 0.0 0.0 0.00 0.07 0.07 93 1013.9
20260903112202 62 161 0.0 0.0 0.00 0.07 0.07 93 1013.9
20260903112156 61 130 0.0 0.0 0.00 0.09 0.09 95 1014.6
20260903111702 62 161 1.0 2.0 0.00 0.07 0.07 93 1013.8
20260903111655 61 129 1.0 1.0 0.00 0.09 0.09 95 1014.4
20260903111202 62 161 0.0 0.0 0.00 0.07 0.07 92 1013.9
20260903111150 61 139 0.0 0.0 0.00 0.09 0.09 95 1014.5
20260903110703 62 161 0.0 0.0 0.00 0.07 0.07 92 1013.8
20260903110646 61 143 0.0 0.0 0.00 0.09 0.09 95 1014.3
20260903110202 62 161 1.0 3.0 0.00 0.07 0.07 92 1013.7
20260903110142 61 126 0.0 1.0 0.00 0.09 0.09 95 1014.4
20260903105636 61 122 0.0 0.0 0.00 0.09 0.09 95 1014.2
20260903105203 62 159 0.0 0.0 0.01 0.07 0.07 92 1013.8
20260903105131 61 133 0.0 0.0 0.00 0.09 0.09 95 1014.3
20260903104631 61 122 0.0 0.0 0.00 0.09 0.09 95 1014.5
20260903104126 61 119 0.0 1.0 0.00 0.09 0.09 95 1014.3
20260903103703 62 162 0.0 0.0 0.02 0.07 0.07 92 1013.8
20260903103622 61 84 0.0 1.0 0.00 0.09 0.09 95 1014.3
20260903103202 62 149 0.0 0.0 0.02 0.07 0.07 92 1013.7
20260903103118 61 130 0.0 0.0 0.00 0.09 0.09 95 1014.5
20260903102703 62 150 0.0 0.0 0.02 0.07 0.07 92 1013.8
20260903102613 61 92 0.0 0.0 0.00 0.09 0.09 95 1014.6
20260903102203 62 155 0.0 0.0 0.02 0.07 0.07 92 1013.7
20260903102113 61 118 0.0 0.0 0.00 0.09 0.09 95 1014.2
20260903101702 62 155 0.0 0.0 0.02 0.07 0.07 92 1013.7
20260903101612 61 131 0.0 0.0 0.00 0.09 0.09 94 1014.4
20260903101202 62 155 0.0 0.0 0.02 0.07 0.07 92 1013.9
20260903101108 61 124 0.0 0.0 0.00 0.09 0.09 94 1014.5
20260903100703 62 159 0.0 0.0 0.02 0.07 0.07 92 1013.8
20260903100609 61 142 0.0 0.0 0.07 0.09 0.09 94 1014.3
20260903100108 61 123 0.0 0.0 0.12 0.09 0.09 94 1014.4
20260903095702 62 143 0.0 0.0 0.02 0.07 0.07 92 1013.7
20260903095605 61 175 0.0 0.0 0.05 0.08 0.08 94 1014.3
20260903095202 62 163 0.0 0.0 0.01 0.06 0.06 91 1013.7
20260903095105 61 149 0.0 1.0 0.00 0.07 0.07 94 1014.3
20260903094606 61 149 0.0 0.0 0.00 0.07 0.07 94 1014.2
20260903094101 61 150 1.0 1.0 0.00 0.07 0.07 94 1014.2
20260903093556 61 145 0.0 0.0 0.00 0.07 0.07 94 1014.4
20260903093203 62 153 0.0 1.0 0.00 0.05 0.05 91 1013.9
20260903093052 61 121 0.0 0.0 0.00 0.07 0.07 93 1014.5
20260903092702 62 153 0.0 0.0 0.00 0.05 0.05 91 1013.9
20260903092551 61 133 0.0 1.0 0.00 0.07 0.07 93 1014.4
20260903092045 61 138 0.0 1.0 0.00 0.07 0.07 93 1014.6
20260903091702 62 106 0.0 3.0 0.00 0.05 0.05 91 1013.9
20260903091543 61 75 1.0 1.0 0.00 0.07 0.07 93 1014.6
20260903091202 62 123 2.0 6.0 0.00 0.05 0.05 90 1014.1
20260903091038 61 130 0.0 2.0 0.00 0.07 0.07 94 1014.5
20260903090702 62 100 0.0 0.0 0.00 0.05 0.05 90 1014.1
20260903090535 62 111 0.0 0.0 0.00 0.07 0.07 94 1015.1
20260903090203 63 166 2.0 3.0 0.00 0.05 0.05 90 1014.2
20260903090033 62 145 0.0 3.0 0.00 0.07 0.07 94 1014.7
20260903085703 63 86 0.0 0.0 0.02 0.05 0.05 90 1014.3
20260903085531 62 133 2.0 2.0 0.00 0.07 0.07 94 1014.9
20260903085202 63 179 0.0 0.0 0.05 0.05 0.05 90 1014.3
20260903085027 62 156 1.0 1.0 0.00 0.07 0.07 94 1014.8
20260903084702 63 186 0.0 0.0 0.05 0.05 0.05 90 1014.1
20260903084526 62 126 0.0 0.0 0.00 0.07 0.07 94 1014.8
20260903084203 63 186 0.0 0.0 0.05 0.05 0.05 90 1014.2
20260903084020 62 126 0.0 0.0 0.00 0.07 0.07 93 1014.8
20260903083703 63 186 0.0 0.0 0.05 0.05 0.05 90 1014.2
20260903083517 62 136 0.0 0.0 0.00 0.07 0.07 93 1014.8
20260903083202 63 186 0.0 0.0 0.05 0.05 0.05 90 1014.1
20260903083016 62 136 0.0 0.0 0.00 0.07 0.07 93 1014.7
20260903082510 62 136 0.0 0.0 0.00 0.07 0.07 92 1014.6
20260903082203 64 188 0.0 0.0 0.05 0.05 0.05 89 1014.2
20260903082006 62 136 0.0 0.0 0.00 0.07 0.07 92 1014.9
20260903081703 64 188 0.0 0.0 0.05 0.05 0.05 89 1014.4
20260903081501 63 136 0.0 0.0 0.07 0.07 0.07 91 1015.0
20260903081202 64 188 0.0 0.0 0.05 0.05 0.05 89 1014.5
20260903080951 63 129 0.0 0.0 0.00 0.06 0.06 90 1015.0
20260903080702 64 188 0.0 0.0 0.05 0.05 0.05 89 1014.4
20260903080447 63 123 0.0 0.0 0.24 0.06 0.06 89 1015.0
20260903080203 64 188 0.0 0.0 0.05 0.05 0.05 89 1014.3
20260903075943 64 123 0.0 0.0 0.35 0.06 0.06 88 1014.8
20260903075703 64 188 0.0 0.0 0.03 0.03 0.03 89 1014.3
20260903075438 64 109 0.0 1.0 0.07 0.01 0.01 86 1015.1
20260903075203 63 181 0.0 0.0 0.00 0.00 0.00 89 1014.3
20260903074933 64 132 0.0 0.0 0.00 0.00 0.00 86 1015.0
20260903074703 64 144 0.0 0.0 0.00 0.00 0.00 89 1014.2
20260903074427 64 161 0.0 1.0 0.00 0.00 0.00 87 1014.7
20260903073922 64 135 0.0 0.0 0.00 0.00 0.00 87 1014.7
20260903073703 64 123 0.0 0.0 0.00 0.00 0.00 89 1014.1
20260903073417 64 136 0.0 0.0 0.00 0.00 0.00 87 1014.7
20260903073202 64 129 1.0 3.0 0.00 0.00 0.00 89 1014.3
20260903072913 64 127 1.0 2.0 0.00 0.00 0.00 87 1015.0
20260903072703 64 124 2.0 7.0 0.00 0.00 0.00 89 1014.3
20260903072409 64 132 0.0 2.0 0.00 0.00 0.00 87 1015.0
20260903071906 64 101 1.0 3.0 0.00 0.00 0.00 88 1014.9
20260903071702 64 134 0.0 0.0 0.00 0.00 0.00 89 1014.2
20260903071401 64 105 0.0 2.0 0.00 0.00 0.00 88 1014.7
20260903070857 64 127 1.0 2.0 0.00 0.00 0.00 88 1014.9
20260903070702 64 116 0.0 0.0 0.00 0.00 0.00 89 1014.3
20260903070351 64 84 0.0 2.0 0.00 0.00 0.00 88 1015.1
20260903070203 64 131 0.0 0.0 0.00 0.00 0.00 89 1014.4
20260903065846 64 119 0.0 1.0 0.00 0.00 0.00 88 1015.2
20260903065345 64 131 0.0 1.0 0.00 0.00 0.00 88 1015.1
20260903065202 64 103 1.0 3.0 0.00 0.00 0.00 89 1014.6
20260903064844 64 135 0.0 0.0 0.00 0.00 0.00 88 1015.4
20260903064702 64 142 0.0 0.0 0.00 0.00 0.00 89 1014.8
20260903064340 64 109 1.0 2.0 0.00 0.00 0.00 88 1015.4
20260903064203 64 186 0.0 0.0 0.00 0.00 0.00 89 1014.9
20260903063836 64 114 0.0 1.0 0.00 0.00 0.00 88 1015.5
20260903063703 64 163 0.0 0.0 0.00 0.00 0.00 89 1015.0
20260903063331 64 136 0.0 1.0 0.00 0.00 0.00 88 1015.7
20260903063203 64 96 0.0 7.0 0.00 0.00 0.00 89 1015.0
20260903062826 64 114 0.0 2.0 0.00 0.00 0.00 88 1015.6
20260903062702 64 122 0.0 0.0 0.00 0.00 0.00 89 1015.2
20260903062326 64 153 1.0 2.0 0.00 0.00 0.00 88 1016.0
20260903061823 64 127 0.0 1.0 0.00 0.00 0.00 88 1016.2
20260903061702 64 121 0.0 0.0 0.00 0.00 0.00 89 1015.7
20260903061321 64 133 0.0 1.0 0.00 0.00 0.00 88 1016.3
20260903061203 64 126 1.0 6.0 0.00 0.00 0.00 89 1015.8
20260903060818 64 137 1.0 2.0 0.00 0.00 0.00 88 1016.7
20260903060703 64 159 1.0 3.0 0.00 0.00 0.00 89 1016.0
20260903060317 64 155 1.0 1.0 0.00 0.00 0.00 88 1016.8
20260903060203 64 126 0.0 0.0 0.00 0.00 0.00 89 1016.2
20260903055815 64 98 0.0 1.0 0.00 0.00 0.00 88 1016.9
20260903055313 64 161 1.0 3.0 0.00 0.00 0.00 88 1017.2
20260903055203 64 120 0.0 2.0 0.00 0.00 0.00 89 1016.3
20260903054808 64 150 0.0 1.0 0.00 0.00 0.00 88 1017.2
20260903054702 64 116 0.0 2.0 0.00 0.00 0.00 89 1016.5
20260903054308 64 97 0.0 0.0 0.00 0.00 0.00 88 1017.3
20260903053805 64 132 1.0 2.0 0.00 0.00 0.00 88 1017.4
20260903053703 64 163 0.0 0.0 0.00 0.00 0.00 89 1016.5
20260903053300 64 93 1.0 1.0 0.00 0.00 0.00 88 1017.1
20260903053203 64 77 0.0 0.0 0.00 0.00 0.00 90 1016.5
20260903052755 64 180 2.0 2.0 0.00 0.00 0.00 88 1017.2
20260903052702 64 117 0.0 0.0 0.00 0.00 0.00 89 1016.5
20260903052251 64 164 1.0 2.0 0.00 0.00 0.00 88 1017.2
20260903052203 64 138 1.0 3.0 0.00 0.00 0.00 90 1016.5
20260903051746 64 147 0.0 1.0 0.00 0.00 0.00 88 1017.3
20260903051703 64 88 0.0 0.0 0.00 0.00 0.00 90 1016.5
20260903051242 64 125 0.0 2.0 0.00 0.00 0.00 88 1017.2
20260903051203 64 142 0.0 0.0 0.00 0.00 0.00 90 1016.4
20260903050737 64 166 1.0 3.0 0.00 0.00 0.00 88 1017.2
20260903050702 64 127 2.0 7.0 0.00 0.00 0.00 90 1016.3
20260903050236 64 140 4.0 6.0 0.00 0.00 0.00 88 1016.9
20260903050203 64 95 1.0 9.0 0.00 0.00 0.00 90 1016.3
20260903045731 64 112 0.0 1.0 0.00 0.00 0.00 88 1016.8
20260903045703 64 126 0.0 0.0 0.00 0.00 0.00 90 1016.2
20260903045227 64 119 0.0 1.0 0.00 0.00 0.00 88 1016.9
20260903045202 64 124 0.0 6.0 0.00 0.00 0.00 89 1016.2
20260903044723 64 151 1.0 1.0 0.00 0.00 0.00 88 1016.9
20260903044218 64 102 2.0 4.0 0.00 0.00 0.00 88 1017.2
20260903044202 64 138 0.0 0.0 0.00 0.00 0.00 89 1016.4
20260903043715 64 154 0.0 1.0 0.00 0.00 0.00 88 1017.3
20260903043703 64 100 0.0 0.0 0.00 0.00 0.00 89 1016.5
20260903043214 64 141 2.0 3.0 0.00 0.00 0.00 89 1017.3
20260903042714 64 141 0.0 2.0 0.00 0.00 0.00 88 1017.2
20260903042209 64 104 0.0 2.0 0.00 0.00 0.00 88 1017.6
20260903042203 64 143 0.0 0.0 0.00 0.00 0.00 89 1016.6
20260903041705 64 162 1.0 2.0 0.00 0.00 0.00 88 1017.5
20260903041703 64 135 0.0 0.0 0.00 0.00 0.00 89 1016.7
20260903041201 64 97 0.0 3.0 0.00 0.00 0.00 88 1017.8
20260903040703 64 82 0.0 0.0 0.00 0.00 0.00 89 1016.8
20260903040700 64 109 0.0 1.0 0.00 0.00 0.00 88 1017.6
20260903040203 64 104 0.0 0.0 0.00 0.00 0.00 89 1016.7
20260903040156 64 110 0.0 2.0 0.00 0.00 0.00 88 1017.4
20260903035702 64 124 1.0 5.0 0.00 0.00 0.00 89 1016.7
20260903035651 64 145 3.0 3.0 0.00 0.00 0.00 88 1017.3
20260903035203 64 91 0.0 0.0 0.00 0.00 0.00 89 1016.9
20260903035142 64 123 0.0 1.0 0.00 0.00 0.00 88 1017.6
20260903034703 64 119 0.0 0.0 0.00 0.00 0.00 89 1016.8
20260903034642 64 124 1.0 2.0 0.00 0.00 0.00 88 1017.7
20260903034203 64 117 0.0 0.0 0.00 0.00 0.00 89 1016.9
20260903034136 64 127 0.0 1.0 0.00 0.00 0.00 88 1017.7
20260903033702 64 102 0.0 0.0 0.00 0.00 0.00 89 1017.0
20260903033632 64 128 1.0 1.0 0.00 0.00 0.00 88 1017.7
20260903033202 64 132 0.0 0.0 0.00 0.00 0.00 89 1017.1
20260903033126 64 129 1.0 2.0 0.00 0.00 0.00 88 1017.9
20260903032703 64 125 0.0 0.0 0.00 0.00 0.00 89 1017.2
20260903032621 64 129 0.0 3.0 0.00 0.00 0.00 88 1017.9
20260903032203 64 168 0.0 0.0 0.00 0.00 0.00 89 1017.3
20260903032117 64 161 0.0 1.0 0.00 0.00 0.00 88 1018.1
20260903031702 64 168 0.0 1.0 0.00 0.00 0.00 89 1017.5
20260903031612 64 125 0.0 0.0 0.00 0.00 0.00 88 1018.3
20260903031202 64 101 0.0 0.0 0.00 0.00 0.00 89 1017.6
20260903031107 64 138 0.0 0.0 0.00 0.00 0.00 88 1018.3
20260903030703 64 136 0.0 0.0 0.00 0.00 0.00 89 1017.6
20260903030602 64 128 0.0 1.0 0.00 0.00 0.00 88 1018.3
20260903030058 64 185 1.0 2.0 0.00 0.00 0.00 89 1018.1
20260903025702 64 134 0.0 0.0 0.00 0.00 0.00 89 1017.5
20260903025553 64 144 0.0 1.0 0.00 0.00 0.00 89 1018.3
20260903025203 64 153 0.0 0.0 0.00 0.00 0.00 89 1017.4
20260903025050 64 133 0.0 0.0 0.00 0.00 0.00 89 1018.2
20260903024703 64 153 1.0 3.0 0.00 0.00 0.00 89 1017.5
20260903024549 64 148 1.0 2.0 0.00 0.00 0.00 89 1018.3
20260903024203 64 139 0.0 0.0 0.00 0.00 0.00 89 1017.5
20260903024048 64 109 0.0 3.0 0.00 0.00 0.00 89 1018.3
20260903023702 64 192 0.0 1.0 0.00 0.00 0.00 89 1017.5
20260903023544 64 128 1.0 2.0 0.00 0.00 0.00 89 1018.3
20260903023203 64 161 0.0 0.0 0.00 0.00 0.00 89 1017.5
20260903023040 64 124 0.0 2.0 0.00 0.00 0.00 89 1018.3
20260903022702 64 122 0.0 0.0 0.00 0.00 0.00 89 1017.5
20260903022539 64 158 0.0 1.0 0.00 0.00 0.00 88 1018.2
20260903022202 64 116 1.0 6.0 0.00 0.00 0.00 89 1017.7
20260903022038 64 140 0.0 0.0 0.00 0.00 0.00 88 1018.4
20260903021703 64 105 0.0 3.0 0.00 0.00 0.00 89 1017.7
20260903021533 64 109 0.0 0.0 0.00 0.00 0.00 88 1018.3
20260903021027 64 122 0.0 0.0 0.00 0.00 0.00 88 1018.4
20260903020703 64 143 0.0 1.0 0.00 0.00 0.00 89 1017.7
20260903020523 64 140 0.0 1.0 0.00 0.00 0.00 88 1018.5
20260903020203 64 113 0.0 3.0 0.00 0.00 0.00 89 1017.8
20260903020023 64 127 0.0 2.0 0.00 0.00 0.00 88 1018.5
20260903015703 64 176 0.0 1.0 0.00 0.00 0.00 89 1017.9
20260903015519 64 123 0.0 0.0 0.00 0.00 0.00 88 1018.7
20260903015203 65 156 0.0 0.0 0.00 0.00 0.00 89 1018.0
20260903015015 64 125 0.0 1.0 0.00 0.00 0.00 89 1018.8
20260903014702 64 195 1.0 5.0 0.00 0.00 0.00 89 1018.0
20260903014514 64 165 0.0 4.0 0.00 0.00 0.00 89 1018.8
20260903014202 65 170 0.0 0.0 0.00 0.00 0.00 89 1018.1
20260903014009 64 111 3.0 4.0 0.00 0.00 0.00 89 1018.8
20260903013702 65 166 0.0 0.0 0.00 0.00 0.00 89 1018.1
20260903013508 64 140 1.0 2.0 0.00 0.00 0.00 89 1018.8
20260903013203 65 155 0.0 1.0 0.00 0.00 0.00 89 1018.0
20260903013008 64 157 0.0 0.0 0.00 0.00 0.00 89 1018.8
20260903012702 65 139 0.0 0.0 0.00 0.00 0.00 89 1018.1
20260903012507 64 84 0.0 4.0 0.00 0.00 0.00 89 1018.8
20260903012203 65 162 0.0 0.0 0.00 0.00 0.00 88 1018.0
20260903012007 64 136 0.0 1.0 0.00 0.00 0.00 89 1018.5
20260903011703 65 175 1.0 2.0 0.00 0.00 0.00 88 1017.7
20260903011501 64 131 0.0 1.0 0.00 0.00 0.00 89 1018.3
20260903011202 65 332 1.0 8.0 0.00 0.00 0.00 88 1017.5
20260903010956 64 102 2.0 4.0 0.00 0.00 0.00 89 1018.2
20260903010702 65 131 2.0 9.0 0.00 0.00 0.00 88 1017.4
20260903010457 64 152 2.0 3.0 0.00 0.00 0.00 88 1018.2
20260903010203 65 93 0.0 0.0 0.00 0.00 0.00 88 1017.6
20260903005954 65 140 1.0 4.0 0.00 0.00 0.00 88 1018.3
20260903005703 65 163 0.0 2.0 0.00 0.00 0.00 88 1017.6
20260903005450 65 80 2.0 3.0 0.00 0.00 0.00 88 1018.5
20260903005202 65 216 0.0 0.0 0.00 0.00 0.00 87 1017.6
20260903004946 65 132 0.0 1.0 0.00 0.00 0.00 88 1018.3
20260903004703 65 200 1.0 3.0 0.00 0.00 0.00 87 1017.7
20260903004440 65 129 1.0 1.0 0.00 0.00 0.00 88 1018.4
20260903004203 65 140 0.0 0.0 0.00 0.00 0.00 87 1017.8
20260903003936 65 150 0.0 1.0 0.00 0.00 0.00 88 1018.5
20260903003703 65 187 0.0 0.0 0.00 0.00 0.00 87 1017.7
20260903003436 65 148 0.0 1.0 0.00 0.00 0.00 88 1018.4
20260903003203 65 167 0.0 0.0 0.00 0.00 0.00 87 1017.7
20260903002931 65 139 1.0 3.0 0.00 0.00 0.00 87 1018.1
20260903002704 65 97 3.0 10.0 0.00 0.00 0.00 86 1017.5
20260903002426 65 142 0.0 2.0 0.00 0.00 0.00 87 1018.5
20260903002203 66 111 1.0 6.0 0.00 0.00 0.00 86 1017.4
20260903001926 65 141 0.0 4.0 0.00 0.00 0.00 87 1018.3
20260903001703 66 126 0.0 3.0 0.00 0.00 0.00 86 1017.5
20260903001426 65 122 0.0 2.0 0.00 0.00 0.00 86 1018.4
20260903001203 66 132 1.0 9.0 0.00 0.00 0.00 86 1017.7
20260903000925 65 138 0.0 1.0 0.00 0.00 0.00 86 1018.4
20260903000703 66 83 0.0 0.0 0.00 0.00 0.00 85 1017.7
20260903000421 65 113 0.0 1.0 0.00 0.00 0.00 86 1018.7
20260903000204 66 124 0.0 1.0 0.00 0.00 0.00 85 1017.9
20260902235919 65 78 1.0 1.0 0.00 0.00 0.00 85 1018.5
20260902235702 66 175 1.0 5.0 0.00 0.00 0.00 85 1017.7
20260902235415 66 125 1.0 3.0 0.00 0.00 0.00 85 1018.2
20260902234914 66 124 0.0 2.0 0.00 0.00 0.00 85 1018.6
20260902234703 66 97 0.0 0.0 0.00 0.00 0.00 84 1018.0
20260902234410 66 154 0.0 2.0 0.00 0.00 0.00 85 1018.9
20260902233909 66 211 3.0 3.0 0.00 0.00 0.00 84 1019.2
20260902233703 66 116 0.0 3.0 0.00 0.00 0.00 84 1018.3
20260902233403 66 142 2.0 3.0 0.00 0.00 0.00 84 1019.0
20260902233203 67 123 1.0 7.0 0.00 0.00 0.00 84 1018.4
20260902232902 66 91 1.0 3.0 0.00 0.00 0.00 83 1019.1
20260902232703 67 128 1.0 3.0 0.00 0.00 0.00 83 1018.5
20260902232357 66 67 0.0 4.0 0.00 0.00 0.00 83 1019.4
20260902232202 67 133 0.0 0.0 0.00 0.00 0.00 83 1018.6
20260902231856 66 142 1.0 2.0 0.00 0.00 0.00 83 1019.3
20260902231702 67 178 0.0 0.0 0.00 0.00 0.00 82 1018.7
20260902231351 66 137 0.0 2.0 0.00 0.00 0.00 82 1019.5
20260902231202 67 151 0.0 9.0 0.00 0.00 0.00 82 1018.7
20260902230846 67 130 0.0 0.0 0.00 0.00 0.00 82 1019.4
20260902230703 67 117 0.0 0.0 0.00 0.00 0.00 82 1018.7
20260902230346 67 140 0.0 2.0 0.00 0.00 0.00 82 1019.6
20260902230203 67 104 0.0 0.0 0.00 0.00 0.00 82 1018.8
20260902225839 67 112 0.0 1.0 0.00 0.00 0.00 81 1019.3
20260902225702 67 108 0.0 1.0 0.00 0.00 0.00 81 1018.7
20260902225335 67 106 0.0 0.0 0.00 0.00 0.00 81 1019.4
20260902225203 68 141 0.0 0.0 0.00 0.00 0.00 81 1018.7
20260902224833 67 68 1.0 2.0 0.00 0.00 0.00 80 1019.5
20260902224703 68 85 1.0 6.0 0.00 0.01 0.00 81 1018.6
20260902224328 67 135 0.0 7.0 0.00 0.00 0.00 79 1019.4
20260902224202 68 102 1.0 5.0 0.00 0.01 0.00 80 1018.5
20260902223826 68 85 1.0 3.0 0.00 0.00 0.00 79 1019.3
20260902223702 68 133 3.0 12.0 0.00 0.01 0.00 80 1018.6
20260902223325 68 166 0.0 3.0 0.00 0.00 0.00 78 1019.5
20260902222825 68 153 2.0 2.0 0.00 0.00 0.00 78 1019.7
20260902222702 68 167 0.0 2.0 0.00 0.01 0.00 79 1018.8
20260902222323 68 112 1.0 3.0 0.00 0.00 0.00 77 1019.6
20260902221818 68 121 2.0 6.0 0.00 0.00 0.00 77 1019.7
20260902221317 68 61 0.0 2.0 0.00 0.00 0.00 76 1019.5
20260902221203 69 173 0.0 0.0 0.00 0.01 0.00 78 1018.9
20260902220813 68 88 1.0 2.0 0.00 0.00 0.00 76 1019.6
20260902220313 68 126 0.0 1.0 0.00 0.00 0.00 75 1019.8
20260902215809 69 155 1.0 2.0 0.00 0.00 0.00 74 1019.7
20260902215703 69 123 2.0 10.0 0.00 0.01 0.00 77 1018.9
20260902215308 69 177 1.0 2.0 0.00 0.00 0.00 74 1019.5
20260902215203 69 63 0.0 12.0 0.00 0.01 0.00 76 1018.7
20260902214805 69 113 2.0 3.0 0.00 0.00 0.00 74 1019.5
20260902214703 69 119 1.0 3.0 0.00 0.01 0.00 76 1018.8
20260902214303 69 111 2.0 2.0 0.00 0.00 0.00 74 1019.6
20260902214203 69 116 0.0 0.0 0.00 0.01 0.00 76 1018.9
20260902213759 69 155 1.0 3.0 0.00 0.00 0.00 74 1019.5
20260902213254 69 171 0.0 2.0 0.00 0.00 0.00 74 1019.7
20260902213202 70 96 0.0 7.0 0.00 0.01 0.00 75 1018.9
20260902212753 69 80 2.0 4.0 0.00 0.00 0.00 73 1019.5
20260902212703 70 108 0.0 7.0 0.00 0.01 0.00 75 1018.8
20260902212250 70 116 3.0 3.0 0.00 0.00 0.00 73 1019.6
20260902212202 70 162 0.0 2.0 0.00 0.01 0.00 75 1018.8
20260902211746 70 142 1.0 2.0 0.00 0.00 0.00 73 1019.5
20260902211703 70 145 0.0 3.0 0.00 0.01 0.00 75 1018.9
20260902211242 70 113 1.0 6.0 0.00 0.00 0.00 72 1019.3
20260902211203 70 93 0.0 6.0 0.00 0.01 0.00 74 1018.7
20260902210741 70 183 1.0 3.0 0.00 0.00 0.00 71 1019.4
20260902210703 70 106 0.0 3.0 0.00 0.01 0.00 74 1018.7
20260902210236 70 154 0.0 6.0 0.00 0.00 0.00 71 1019.5
20260902205734 70 166 2.0 2.0 0.00 0.00 0.00 72 1019.5
20260902205702 71 101 0.0 3.0 0.00 0.01 0.00 74 1018.6
20260902205230 70 160 1.0 2.0 0.00 0.00 0.00 73 1019.6
20260902205203 71 142 0.0 7.0 0.00 0.01 0.00 74 1018.7
20260902204725 70 182 2.0 3.0 0.00 0.00 0.00 72 1019.7
20260902204702 71 136 2.0 9.0 0.00 0.01 0.00 73 1018.8
20260902204220 70 71 3.0 4.0 0.00 0.00 0.00 72 1019.4
20260902204203 71 85 0.0 8.0 0.00 0.01 0.00 73 1018.8
20260902203715 71 187 3.0 6.0 0.00 0.00 0.00 70 1019.4
20260902203703 72 182 0.0 5.0 0.00 0.01 0.00 72 1018.8
20260902203215 72 172 1.0 3.0 0.00 0.00 0.00 69 1019.5
20260902203203 72 166 0.0 9.0 0.00 0.01 0.00 72 1018.8
20260902202710 73 117 0.0 3.0 0.00 0.00 0.00 66 1019.8
20260902202702 72 165 1.0 9.0 0.00 0.01 0.00 72 1019.0
20260902202207 73 126 1.0 4.0 0.00 0.00 0.00 67 1019.8
20260902202203 72 108 1.0 7.0 0.00 0.01 0.00 73 1019.1
20260902201703 72 89 0.0 3.0 0.00 0.01 0.00 75 1019.0
20260902201203 72 112 1.0 5.0 0.00 0.01 0.00 75 1019.1
20260902200702 71 97 1.0 8.0 0.00 0.01 0.00 75 1019.1
20260902200657 72 140 5.0 7.0 0.00 0.00 0.00 70 1019.8
20260902200203 71 125 0.0 2.0 0.00 0.01 0.00 76 1019.1
20260902200153 71 170 3.0 6.0 0.00 0.00 0.00 73 1019.8
20260902195702 71 144 0.0 3.0 0.00 0.01 0.00 76 1019.3
20260902195648 71 195 1.0 6.0 0.00 0.00 0.00 72 1020.1
20260902195203 71 201 0.0 1.0 0.00 0.01 0.00 76 1019.3
20260902195148 71 70 1.0 4.0 0.00 0.00 0.00 72 1020.0
20260902194703 71 136 0.0 3.0 0.00 0.01 0.00 76 1019.3
20260902194647 71 177 2.0 2.0 0.00 0.00 0.00 73 1020.0
20260902194203 71 130 0.0 1.0 0.00 0.01 0.00 76 1019.4
20260902194142 71 114 1.0 2.0 0.00 0.00 0.00 73 1020.2
20260902193703 71 153 1.0 3.0 0.00 0.01 0.00 76 1019.5
20260902193638 71 127 3.0 6.0 0.00 0.00 0.00 72 1020.0
20260902193202 71 108 0.0 0.0 0.00 0.01 0.00 76 1019.4
20260902193138 71 174 0.0 2.0 0.00 0.00 0.00 72 1020.1
20260902192637 71 122 0.0 3.0 0.00 0.00 0.00 72 1020.3
20260902192203 71 92 0.0 7.0 0.00 0.01 0.00 77 1019.6
20260902192136 71 133 1.0 4.0 0.00 0.00 0.00 74 1020.3
20260902191703 71 96 1.0 7.0 0.00 0.01 0.00 77 1019.6
20260902191632 71 155 4.0 7.0 0.00 0.00 0.00 73 1020.2
20260902191203 71 102 1.0 9.0 0.00 0.01 0.00 77 1019.6
20260902191131 71 142 0.0 2.0 0.00 0.00 0.00 74 1020.3
20260902190702 71 160 0.0 6.0 0.00 0.01 0.00 77 1019.7
20260902190627 71 95 0.0 3.0 0.00 0.00 0.00 74 1020.4
20260902190202 71 99 0.0 3.0 0.00 0.01 0.00 77 1019.8
20260902190122 70 109 1.0 4.0 0.00 0.00 0.00 74 1020.5
20260902185703 71 136 0.0 0.0 0.00 0.01 0.00 76 1019.8
20260902185618 70 106 0.0 1.0 0.00 0.00 0.00 74 1020.5
20260902185204 71 135 0.0 0.0 0.00 0.01 0.00 76 1019.8
20260902185113 70 162 1.0 3.0 0.00 0.00 0.00 74 1020.4
20260902184703 71 171 0.0 0.0 0.00 0.01 0.00 76 1019.8
20260902184608 70 137 1.0 2.0 0.00 0.00 0.00 74 1020.4
20260902184103 71 163 2.0 4.0 0.00 0.00 0.00 73 1020.4
20260902183702 71 101 0.0 9.0 0.00 0.01 0.00 75 1019.6
20260902183600 71 178 1.0 3.0 0.00 0.00 0.00 72 1020.3
20260902183203 71 94 0.0 0.0 0.00 0.01 0.00 75 1019.5
20260902183056 71 160 1.0 2.0 0.00 0.00 0.00 72 1020.2
20260902182552 71 165 1.0 3.0 0.00 0.00 0.00 72 1020.4
20260902182202 71 126 2.0 14.0 0.00 0.01 0.00 75 1019.5
20260902182048 71 93 2.0 6.0 0.00 0.00 0.00 71 1020.2
20260902181703 71 117 1.0 8.0 0.00 0.01 0.00 75 1019.5
20260902181544 72 76 1.0 6.0 0.00 0.00 0.00 71 1020.1
20260902181203 71 107 0.0 10.0 0.00 0.01 0.00 75 1019.5
20260902181043 71 103 1.0 3.0 0.00 0.00 0.00 71 1020.3
20260902180702 71 94 1.0 9.0 0.00 0.01 0.00 75 1019.5
20260902180538 72 201 2.0 2.0 0.00 0.00 0.00 72 1020.2
20260902180034 71 189 1.0 3.0 0.00 0.00 0.00 72 1020.5
20260902175703 71 121 0.0 0.0 0.00 0.01 0.00 74 1019.7
20260902175534 71 284 2.0 3.0 0.00 0.00 0.00 71 1020.4
20260902175203 71 152 1.0 8.0 0.00 0.01 0.00 75 1019.8
20260902175030 71 166 2.0 4.0 0.00 0.00 0.00 71 1020.5
20260902174703 71 131 1.0 5.0 0.00 0.01 0.00 75 1019.7